TimeCDT,TemperatureF,Dew PointF,Humidity,Sea Level PressureIn,VisibilityMPH,Wind Direction,Wind SpeedMPH,Gust SpeedMPH,PrecipitationIn,Events,Conditions,WindDirDegrees,DateUTC
12:54 AM,71.1,64.0,78,29.92,9.0,Calm,Calm,-,N/A,,Scattered Clouds,0,2013-07-07 05:54:00
1:54 AM,72.0,64.0,76,29.92,10.0,SW,3.5,-,N/A,,Partly Cloudy,230,2013-07-07 06:54:00
2:54 AM,72.0,64.0,76,29.91,10.0,SSW,4.6,-,N/A,,Scattered Clouds,210,2013-07-07 07:54:00
3:54 AM,72.0,64.0,76,29.91,10.0,South,6.9,-,N/A,,Partly Cloudy,190,2013-07-07 08:54:00
4:54 AM,71.1,64.0,78,29.91,9.0,South,6.9,-,N/A,,Scattered Clouds,170,2013-07-07 09:54:00
5:54 AM,71.1,64.0,78,29.91,7.0,SSE,5.8,-,N/A,,Mostly Cloudy,150,2013-07-07 10:54:00
6:54 AM,71.1,64.0,78,29.91,7.0,ESE,4.6,-,N/A,,Clear,120,2013-07-07 11:54:00
7:54 AM,72.0,64.9,78,29.92,7.0,South,10.4,-,N/A,,Clear,180,2013-07-07 12:54:00
8:54 AM,73.0,64.9,76,29.94,8.0,SSW,4.6,-,N/A,,Clear,210,2013-07-07 13:54:00
9:54 AM,73.0,66.9,81,29.94,7.0,Calm,Calm,-,0.00,Rain,Light Rain,0,2013-07-07 14:54:00
10:54 AM,73.0,68.0,84,29.94,6.0,South,4.6,-,0.01,,Haze,190,2013-07-07 15:54:00
11:54 AM,77.0,68.0,74,29.94,7.0,Calm,Calm,-,N/A,,Mostly Cloudy,0,2013-07-07 16:54:00
12:54 PM,78.1,68.0,71,29.92,7.0,Calm,Calm,-,N/A,,Scattered Clouds,0,2013-07-07 17:54:00
1:54 PM,79.0,68.0,69,29.90,8.0,SSE,9.2,-,0.00,Rain,Light Rain,160,2013-07-07 18:54:00
2:54 PM,82.0,70.0,67,29.90,8.0,South,5.8,-,0.01,,Mostly Cloudy,190,2013-07-07 19:54:00
3:54 PM,87.1,64.0,46,29.88,10.0,SSW,10.4,-,N/A,,Overcast,210,2013-07-07 20:54:00
4:54 PM,86.0,62.1,44,29.88,10.0,South,8.1,17.3,N/A,,Overcast,190,2013-07-07 21:54:00
5:54 PM,87.1,64.9,48,29.86,10.0,SW,11.5,18.4,N/A,,Clear,220,2013-07-07 22:54:00
6:54 PM,84.0,68.0,58,29.86,10.0,SW,6.9,-,N/A,,Clear,230,2013-07-07 23:54:00
7:54 PM,82.0,69.1,65,29.88,10.0,SSW,3.5,-,N/A,,Mostly Cloudy,210,2013-07-08 00:54:00
8:36 PM,80.6,69.8,70,29.91,5.0,WNW,9.2,-,0.03,Rain-Thunderstorm,Thunderstorms and Rain,290,2013-07-08 01:36:00
8:44 PM,75.2,71.6,89,29.91,1.8,WSW,8.1,-,0.17,Rain-Thunderstorm,Heavy Thunderstorms and Rain,240,2013-07-08 01:44:00
8:54 PM,75.9,72.0,87,29.90,3.0,Calm,Calm,-,0.19,Rain-Thunderstorm,Light Thunderstorms and Rain,0,2013-07-08 01:54:00
9:29 PM,75.2,73.4,94,29.91,6.0,Calm,Calm,-,0.00,,Mostly Cloudy,0,2013-07-08 02:29:00
9:54 PM,75.0,73.0,94,29.90,5.0,Calm,Calm,-,0.00,,Clear,0,2013-07-08 02:54:00
10:54 PM,73.9,72.0,93,29.90,5.0,East,4.6,-,N/A,,Mostly Cloudy,90,2013-07-08 03:54:00
11:54 PM,73.9,72.0,93,29.89,5.0,ESE,4.6,-,N/A,,Overcast,110,2013-07-08 04:54:00